Location: Bacharowice
(49.9333°N, 19.5833°E)
Time: 04:54:24
(UTC+00:00)

Cosmos 1908 Rocket - Pass Details

Date: 02 October 2021
Orbit: 605 x 633 km, 82.5° (Epoch: 25 October)

Event Time Altitude Azimuth Distance (km) Brightness Sun altitude
Rises 02:49:28 0° 357° (N) 2,902 7.2 -18.9°
Reaches altitude 10° 02:51:55 10° 7° (N) 1,987 6.5 -18.5°
Maximum altitude 02:55:51 32° 71° (ENE) 1,067 5.5 -17.9°
Drops below altitude 10° 02:59:45 10° 135° (SE) 1,959 6.5 -17.3°
Sets 03:02:09 0° 145° (SE) 2,855 7.2 -16.9°
